Weather History for KT82 - September, 2013

Change the Weather History Date:

Saturday, September 14, 2013

  Actual Average (KSAT) Record (KSAT)
Temperature  
Mean Temperature 77 °F 80 °F  
Max Temperature 91 °F 91 °F 99 °F (2011)
Min Temperature 63 °F 70 °F 52 °F (1945)
Degree Days  
Heating Degree Days 0 0  
Month to date heating degree days 0  
Since 1 July heating degree days 0  
Cooling Degree Days 12 15  
Month to date cooling degree days 238  
Year to date cooling degree days 2629  
Growing Degree Days 27 (Base 50)    
Moisture  
Dew Point 60 °F    
Average Humidity 58    
Maximum Humidity 89    
Minimum Humidity 31    
Precipitation  
Precipitation 0.00 in 0.10 in 3.39 in (1904)
Month to date precipitation 1.50  
Year to date precipitation 22.44  
Snow  
Snow 0.00 in - - ()
Month to date snowfall  
Since 1 July snowfall  
Since 1 September snowfall  
Snow Depth -    
Sea Level Pressure  
Sea Level Pressure 29.95 in    
Wind  
Wind Speed 2 mph (ESE)    
Max Wind Speed 13 mph    
Max Gust Speed 20 mph    
Visibility 10 miles    
Events      
T = Trace of Precipitation, MM = Missing Value Source: NWS Daily Summary

Daily Weather History Graph

Daily Weather History Graph

Search for Another Location

Airport or City:

Trip Planner

Search our weather history database for the weather conditions in past years. The results will help you decide how hot, cold, wet, or windy it might be!

Date:

Astronomy

Sep. 14, 2013 Rise Set
Actual Time 7:19 AM CDT 7:41 PM CDT
Civil Twilight 6:55 AM CDT 8:05 PM CDT
Nautical Twilight 6:27 AM CDT 8:34 PM CDT
Astronomical Twilight 5:59 AM CDT 9:02 PM CDT
Moon 4:09 PM CDT (9/14) 2:10 AM CDT (9/14)
Length of Visible Light 13h 10m
Length of Day
12h 22m
Waxing Gibbous, 72% of the Moon is Illuminated
Sep 14
Waxing Gibbous
Sep 19
Full
Sep 26
Last Quarter
Oct 4
New
Oct 11
First Quarter

Hourly Weather History & Observations

Time (CDT) Temp. Heat Index Dew Point Humidity Pressure Visibility Wind Dir Wind Speed Gust Speed Precip Events Conditions
12:15 AM 70.5 °F - 59.0 °F 67% 29.95 in 10.0 mi Calm Calm - N/A   Clear
12:35 AM 69.1 °F - 59.4 °F 71% 29.95 in 10.0 mi Calm Calm - N/A   Clear
12:55 AM 69.6 °F - 59.7 °F 71% 29.95 in 10.0 mi Calm Calm - N/A   Clear
1:15 AM 68.7 °F - 59.7 °F 73% 29.95 in 10.0 mi Calm Calm - N/A   Clear
1:35 AM 68.9 °F - 60.3 °F 74% 29.95 in 10.0 mi Calm Calm - N/A   Clear
1:55 AM 69.4 °F - 59.9 °F 72% 29.95 in 10.0 mi Calm Calm - N/A   Clear
2:15 AM 67.3 °F - 60.8 °F 80% 29.95 in 10.0 mi Calm Calm - N/A   Clear
2:35 AM 68.2 °F - 61.0 °F 78% 29.95 in 10.0 mi Calm Calm - N/A   Clear
2:55 AM 68.0 °F - 60.6 °F 77% 29.95 in 10.0 mi NW 3.5 mph - N/A   Clear
3:15 AM 68.0 °F - 60.8 °F 78% 29.94 in 10.0 mi Calm Calm - N/A   Clear
3:35 AM 67.3 °F - 60.3 °F 78% 29.94 in 10.0 mi Calm Calm - N/A   Clear
3:55 AM 68.2 °F - 60.8 °F 77% 29.94 in 10.0 mi Calm Calm - N/A   Clear
4:15 AM 67.5 °F - 61.0 °F 80% 29.93 in 10.0 mi Calm Calm - N/A   Clear
4:35 AM 66.7 °F - 61.7 °F 84% 29.93 in 10.0 mi Calm Calm - N/A   Clear
4:55 AM 65.7 °F - 61.0 °F 85% 29.93 in 10.0 mi Calm Calm - N/A   Clear
5:15 AM 65.7 °F - 60.8 °F 84% 29.93 in 10.0 mi Calm Calm - N/A   Clear
5:35 AM 66.2 °F - 60.1 °F 81% 29.93 in 10.0 mi Calm Calm - N/A   Clear
5:55 AM 64.8 °F - 60.3 °F 85% 29.94 in 10.0 mi Calm Calm - N/A   Clear
6:15 AM 63.5 °F - 59.9 °F 88% 29.94 in 10.0 mi Calm Calm - N/A   Clear
6:35 AM 65.1 °F - 60.8 °F 86% 29.95 in 10.0 mi Calm Calm - N/A   Clear
6:55 AM 64.6 °F - 60.3 °F 86% 29.95 in 10.0 mi Calm Calm - N/A   Clear
7:15 AM 63.9 °F - 59.9 °F 87% 29.95 in 10.0 mi Calm Calm - N/A   Clear
7:35 AM 63.5 °F - 59.9 °F 88% 29.96 in 10.0 mi North 3.5 mph - N/A   Clear
7:55 AM 64.2 °F - 60.8 °F 89% 29.96 in 10.0 mi Calm Calm - N/A   Clear
8:15 AM 65.8 °F - 61.2 °F 85% 29.97 in 10.0 mi Calm Calm - N/A   Scattered Clouds
8:35 AM 67.1 °F - 61.3 °F 82% 29.97 in 10.0 mi Calm Calm - N/A   Mostly Cloudy
8:55 AM 69.1 °F - 62.6 °F 80% 29.97 in 10.0 mi Calm Calm - N/A   Scattered Clouds
9:15 AM 70.5 °F - 63.0 °F 77% 29.98 in 10.0 mi Calm Calm - N/A   Scattered Clouds
9:35 AM 73.8 °F - 63.3 °F 70% 29.98 in 10.0 mi Calm Calm - N/A   Scattered Clouds
9:55 AM 76.6 °F - 61.2 °F 59% 29.99 in 10.0 mi Calm Calm - N/A   Scattered Clouds
10:15 AM 78.3 °F - 61.7 °F 57% 29.99 in 10.0 mi ESE 3.5 mph - N/A   Mostly Cloudy
10:35 AM 81.3 °F 81.6 °F 59.0 °F 46% 30.00 in 10.0 mi East 4.6 mph - N/A   Mostly Cloudy
10:55 AM 81.9 °F 81.6 °F 56.5 °F 42% 30.00 in 10.0 mi East 4.6 mph - N/A   Mostly Cloudy
11:15 AM 84.0 °F 83.0 °F 55.8 °F 38% 30.00 in 10.0 mi East 6.9 mph - N/A   Scattered Clouds
11:35 AM 84.2 °F 83.3 °F 57.0 °F 39% 29.99 in 10.0 mi East 6.9 mph - N/A   Clear
11:55 AM 86.2 °F 85.4 °F 58.5 °F 39% 29.99 in 10.0 mi ESE 3.5 mph - N/A   Clear
12:15 PM 86.4 °F 85.2 °F 57.4 °F 37% 29.98 in 10.0 mi SE 5.8 mph - N/A   Scattered Clouds
12:35 PM 88.0 °F 86.7 °F 56.8 °F 35% 29.98 in 10.0 mi East 6.9 mph - N/A   Scattered Clouds
12:55 PM 88.3 °F 87.6 °F 58.8 °F 37% 29.97 in 10.0 mi East 9.2 mph - N/A   Scattered Clouds
1:15 PM 89.6 °F 88.6 °F 58.5 °F 35% 29.97 in 10.0 mi SE 8.1 mph 16.1 mph N/A   Scattered Clouds
1:35 PM 88.3 °F 87.3 °F 58.3 °F 36% 29.96 in 10.0 mi East 8.1 mph - N/A   Scattered Clouds
1:55 PM 87.6 °F 86.7 °F 58.3 °F 37% 29.95 in 10.0 mi East 6.9 mph - N/A   Scattered Clouds
2:15 PM 89.4 °F 88.4 °F 58.1 °F 35% 29.94 in 10.0 mi East 8.1 mph 16.1 mph N/A   Clear
2:35 PM 89.6 °F 88.6 °F 58.8 °F 35% 29.94 in 10.0 mi East 6.9 mph 16.1 mph N/A   Scattered Clouds
2:55 PM 90.3 °F 89.3 °F 58.3 °F 34% 29.93 in 10.0 mi SE 9.2 mph 16.1 mph N/A   Scattered Clouds
3:15 PM 91.2 °F 90.2 °F 58.3 °F 33% 29.91 in 10.0 mi ENE 12.7 mph 18.4 mph N/A   Mostly Cloudy
3:35 PM 91.9 °F 90.6 °F 57.4 °F 31% 29.91 in 10.0 mi East 10.4 mph - N/A   Scattered Clouds
3:55 PM 90.5 °F 89.0 °F 56.8 °F 32% 29.91 in 10.0 mi ESE 6.9 mph 16.1 mph N/A   Scattered Clouds
4:15 PM 89.4 °F 87.9 °F 56.8 °F 33% 29.90 in 10.0 mi ESE 6.9 mph - N/A   Scattered Clouds
4:35 PM 90.3 °F 89.0 °F 57.9 °F 33% 29.90 in 10.0 mi East 10.4 mph 19.6 mph N/A   Scattered Clouds
4:55 PM 88.9 °F 88.0 °F 58.6 °F 36% 29.90 in 10.0 mi SE 8.1 mph - N/A   Scattered Clouds
5:15 PM 88.7 °F 88.0 °F 59.0 °F 37% 29.90 in 10.0 mi East 5.8 mph - N/A   Scattered Clouds
5:35 PM 87.8 °F 87.1 °F 59.4 °F 38% 29.91 in 10.0 mi ESE 6.9 mph - N/A   Scattered Clouds
5:55 PM 89.1 °F 88.5 °F 59.5 °F 37% 29.91 in 10.0 mi SE 6.9 mph - N/A   Scattered Clouds
6:15 PM 89.4 °F 88.7 °F 59.4 °F 36% 29.91 in 10.0 mi SE 5.8 mph - N/A   Scattered Clouds
6:35 PM 88.9 °F 88.3 °F 59.2 °F 37% 29.91 in 10.0 mi ESE 6.9 mph - N/A   Clear
6:55 PM 87.8 °F 87.1 °F 59.5 °F 38% 29.91 in 10.0 mi SE 8.1 mph - N/A   Clear
7:15 PM 87.1 °F 86.7 °F 59.9 °F 40% 29.91 in 10.0 mi SE 5.8 mph - N/A   Clear
7:35 PM 86.0 °F 85.9 °F 60.4 °F 42% 29.92 in 10.0 mi SE 3.5 mph - N/A   Clear
7:55 PM 84.7 °F 84.6 °F 60.1 °F 43% 29.93 in 10.0 mi SSE 3.5 mph - N/A   Clear
8:15 PM 83.7 °F 83.8 °F 60.4 °F 45% 29.93 in 10.0 mi Calm Calm - N/A   Clear
8:35 PM 82.6 °F 83.1 °F 60.8 °F 48% 29.94 in 10.0 mi Calm Calm - N/A   Clear
8:55 PM 81.7 °F 82.3 °F 60.8 °F 49% 29.94 in 10.0 mi Calm Calm - N/A   Clear
9:15 PM 80.4 °F 81.4 °F 61.2 °F 52% 29.95 in 10.0 mi Calm Calm - N/A   Clear
9:35 PM 79.9 °F - 61.3 °F 53% 29.96 in 10.0 mi Calm Calm - N/A   Clear
9:55 PM 76.8 °F - 62.6 °F 61% 29.97 in 10.0 mi Calm Calm - N/A   Scattered Clouds
10:15 PM 76.8 °F - 62.1 °F 60% 29.98 in 10.0 mi SE 3.5 mph - N/A   Scattered Clouds
10:35 PM 79.5 °F - 63.7 °F 58% 29.98 in 10.0 mi SE 5.8 mph - N/A   Scattered Clouds
10:55 PM 79.0 °F - 65.3 °F 63% 29.99 in 10.0 mi SE 8.1 mph - N/A   Overcast
11:15 PM 78.4 °F - 66.4 °F 66% 29.99 in 10.0 mi SSE 8.1 mph - N/A   Overcast
11:35 PM 77.9 °F - 66.7 °F 68% 29.99 in 10.0 mi SSE 8.1 mph - N/A   Overcast
11:55 PM 77.2 °F - 66.6 °F 70% 29.99 in 10.0 mi SSE 8.1 mph - N/A   Overcast